Location: ??????????
(54.7560°N, 39.1389°E)
Time: 02:58:36
(UTC+00:00)

Meteor 2-10 Rocket - Pass Details

Date: 19 May 2025
Orbit: 733 x 881 km, 81.2° (Epoch: 14 June)

Event Time Altitude Azimuth Distance (km) Brightness Sun altitude
Rises 21:17:46 0° 346° (NNW) 3,430 8.5 -15.3°
Reaches altitude 10° 21:20:11 10° 348° (NNW) 2,507 7.5 -15.3°
Maximum altitude 21:25:55 75° 74° (ENE) 910 3.9 -15.3°
Enters shadow 21:30:05 20° 158° (SSE) 1,931 5.0 -15.2°
